Weather in Paxtakor

Uzbekistan     40°05′46″N   65°48′03″E
temp.,
°C
wind,
m/s
gust,
m/s
humid.,
%
clouds,
%
prec.,
mm/h
press.,
hPa
HPBL,
m
12 april, mon
mon1223:00+12ne35370 0.0 1018127
02:00+10ene22420 0.0 101942
05:00+8e33420 0.0 101937
08:00+11e57390 0.0 1020328
11:00+18e44240 0.0 1018695
14:00+21nne11160 0.0 10171318
17:00+22w11140 0.0 10161524
20:00+17ene343261 0.0 101790
13 april, tue
tue1323:00+15ese3539100 0.0 1018147
02:00+13e3442100 0.0 101869
05:00+11e224768 0.0 101812
08:00+14ne1140100 0.0 1020161
11:00+19n01290 0.0 1020908
14:00+22wnw22190 0.0 10182075
17:00+23wnw43180 0.0 10172431
20:00+18nw45290 0.0 101874
14 april, wed
wed1423:00+15wnw22370 0.0 101711
02:00+13w01430 0.0 101610
05:00+12e22454 0.0 101612
08:00+16e12365 0.0 1017132
11:00+21sse02210 0.0 10151165
14:00+25sw45130 0.0 10132203
17:00+24w56150 0.0 10121903
20:00+18w23210 0.0 101214
15 april, thu
thu1523:00+15wnw45270 0.0 101372
02:00+13w22365 0.0 101213
05:00+12w22375 0.0 101211
08:00+16wnw1130100 0.0 1014122
11:00+20wnw232299 0.0 1013709
14:00+24nw5515100 0.0 10121320
17:00+22nw7720100 0.0 1011809
20:00+17nw6931100 0.0 1013287
16 april, fri
fri1623:00+14nw1139100 0.0 101211
02:00+13wnw223899 0.0 101210
05:00+12wsw014234 0.0 101311
08:00+17ese11320 0.0 1014149
11:00+22sw12250 0.0 10141091
14:00+25sw55180 0.0 10131799
17:00+25sw44185 0.0 10121821
20:00+20sw2225100 0.0 101312